Indianapolis, IN

6:17 PM EDT on October 22, 2019 (GMT -0400)
Indianapolis International

Weather History for KIND - June, 2019

Change the Weather History Date:

Friday, June 7, 2019

  Actual Average Record
Temperature  
Mean Temperature 74 °F 70 °F  
Max Temperature 82 °F 80 °F 98 °F (1933)
Min Temperature 65 °F 60 °F 41 °F (1894)
Degree Days  
Heating Degree Days 0 1  
Month to date heating degree days 0 9  
Since 1 June heating degree days 0 9  
Since 1 July heating degree days 5376 5371  
Cooling Degree Days 9 6  
Month to date cooling degree days 43 36  
Year to date cooling degree days 154 120  
Since 1 June cooling degree days 43 36  
Growing Degree Days 23 (Base 50)    
Moisture  
Dew Point 58 °F    
Average Humidity 64    
Maximum Humidity 93    
Minimum Humidity 34    
Precipitation  
Precipitation 0.00 in 0.14 in 3.80 in (1963)
Month to date precipitation 0.57 1.01  
Year to date precipitation 22.21 18.41  
Snow  
Snow 0.00 in 0.00 in 0.00 in ()
Month to date snowfall 0.0 0.0  
Since 1 June snowfall 0.0 0.0  
Since 1 July snowfall 19.4 25.9  
Snow Depth 0.00 in    
Sea Level Pressure  
Sea Level Pressure 29.86 in    
Wind  
Wind Speed 14 mph (ENE)    
Max Wind Speed 22 mph    
Max Gust Speed 30 mph    
Visibility 9 miles    
Events      
T = Trace of Precipitation, MM = Missing Value Source: NWS Daily Summary

Daily Weather History Graph

Daily Weather History Graph

Search for Another Location

Airport or City:

Astronomy

Jun. 07, 2019 Rise Set
Actual Time 6:17 AM EDT 9:10 PM EDT
Civil Twilight 5:45 AM EDT 9:43 PM EDT
Nautical Twilight 5:04 AM EDT 10:24 PM EDT
Astronomical Twilight 4:17 AM EDT 11:11 PM EDT
Moon 10:33 AM EDT (6/7) 12:27 AM EDT (6/7)
Length of Visible Light 15h 58m
Length of Day
14h 53m
Waxing Crescent, 22% of the Moon is Illuminated
Jun 7
Waxing Crescent
Jun 10
First Quarter
Jun 17
Full
Jun 25
Last Quarter
Jul 2
New

Hourly Weather History & Observations

Time (EDT) Temp. Heat Index Dew Point Humidity Pressure Visibility Wind Dir Wind Speed Gust Speed Precip Events Conditions
12:54 AM 73.0 °F - 64.0 °F 73% 29.85 in 10.0 mi ENE 11.5 mph - N/A   Mostly Cloudy
1:54 AM 71.1 °F - 64.0 °F 78% 29.84 in 10.0 mi ENE 9.2 mph - N/A   Mostly Cloudy
2:54 AM 69.1 °F - 63.0 °F 81% 29.84 in 10.0 mi NE 10.4 mph - N/A   Mostly Cloudy
3:54 AM 68.0 °F - 62.1 °F 81% 29.85 in 10.0 mi ENE 9.2 mph - N/A   Overcast
4:54 AM 66.9 °F - 61.0 °F 81% 29.84 in 9.0 mi NE 10.4 mph - N/A   Mostly Cloudy
5:54 AM 64.9 °F - 62.1 °F 90% 29.85 in 6.0 mi NE 10.4 mph - N/A   Mostly Cloudy
6:54 AM 64.9 °F - 62.1 °F 90% 29.86 in 4.0 mi NE 12.7 mph - N/A   Mostly Cloudy
7:54 AM 66.0 °F - 62.1 °F 87% 29.86 in 4.0 mi ENE 10.4 mph - N/A   Mostly Cloudy
8:54 AM 68.0 °F - 61.0 °F 78% 29.87 in 6.0 mi ENE 10.4 mph - N/A   Mostly Cloudy
9:54 AM 70.0 °F - 60.1 °F 71% 29.87 in 10.0 mi ENE 16.1 mph - N/A   Mostly Cloudy
10:54 AM 72.0 °F - 59.0 °F 64% 29.87 in 10.0 mi ENE 12.7 mph - N/A   Mostly Cloudy
11:54 AM 75.9 °F - 59.0 °F 56% 29.88 in 10.0 mi NE 17.3 mph 25.3 mph N/A   Scattered Clouds
12:54 PM 75.9 °F - 59.0 °F 56% 29.88 in 10.0 mi NE 16.1 mph 24.2 mph N/A   Scattered Clouds
1:54 PM 78.1 °F - 59.0 °F 52% 29.87 in 10.0 mi ENE 15.0 mph 25.3 mph N/A   Scattered Clouds
2:54 PM 79.0 °F - 61.0 °F 54% 29.86 in 10.0 mi NE 16.1 mph - N/A   Mostly Cloudy
3:54 PM 81.0 °F 80.5 °F 54.0 °F 39% 29.85 in 10.0 mi ENE 18.4 mph 25.3 mph N/A   Mostly Cloudy
4:54 PM 82.0 °F - 51.1 °F 34% 29.83 in 10.0 mi East 17.3 mph 28.8 mph N/A   Mostly Cloudy
5:54 PM 81.0 °F - 51.1 °F 35% 29.83 in 10.0 mi ENE 13.8 mph 24.2 mph N/A   Mostly Cloudy
6:54 PM 79.0 °F - 52.0 °F 39% 29.83 in 10.0 mi ENE 17.3 mph 23.0 mph N/A   Mostly Cloudy
7:54 PM 77.0 °F - 54.0 °F 45% 29.85 in 10.0 mi NE 19.6 mph 24.2 mph N/A   Mostly Cloudy
8:54 PM 75.0 °F - 53.1 °F 46% 29.86 in 10.0 mi NE 16.1 mph - N/A   Mostly Cloudy
9:54 PM 73.9 °F - 55.0 °F 52% 29.87 in 10.0 mi NE 16.1 mph - N/A   Mostly Cloudy
10:54 PM 73.0 °F - 57.0 °F 57% 29.89 in 10.0 mi ENE 18.4 mph 27.6 mph N/A   Mostly Cloudy
11:54 PM 71.1 °F - 55.9 °F 59% 29.89 in 10.0 mi ENE 16.1 mph - N/A   Overcast